www.pogodaiklimat.ru

Погода и климат >> Архив погоды >> Россия >> Ямало-Ненецкий АО >> Толька


АРХИВ ПОГОДЫ в Тольке

Время (UTC), дата Ветер
(напр.,м/с)
 
Видим.   Явления Облачность Т
(С)
Тd
(С)
f
(%)
Тe
(С)
Тes
(С)
Комфортность P
(гПа)
Po
(гПа)
Тmin
(С)
Tmax
(С)
R
(мм)
R24
(мм)
S
(см)
09 14.07 С 2 50 км 8/0
[Ac trans Ci fib]
+21.4 +3.5 31 +22 +28 комфорт 1018.6 1014.6
12 14.07 С 1 50 км 6/0
[Ac trans Ci fib]
+21.0 +3.8 32 +23 +26 комфорт 1018.1 1014.0
15 14.07 штиль 0 50 км 9/3 600 м
[Sc Ac trans]
+16.8 +11.7 72 +17 +17 1017.7 1013.6 +22.1
18 14.07 ЮВ 1 20 км 10/6 600 м
[Sc Ac As]
+16.4 +9.2 62 +17 +17 1017.5 1013.4
21 14.07 В 1 50 км 8/0
[Ac trans]
+12.6 +9.9 84 +13 +13 1017.4 1013.2
00 15.07 ЮВ 1 50 км 8/0
[Ac trans Ci fib]
+16.3 +10.9 70 +17 +19 1017.6 1013.5
03 15.07 ЮВ 2 50 км ясно +20.7 +10.3 51 +23 +30 комфорт 1017.4 1013.3 +12.5
06 15.07 Ю 2 50 км ясно +25.4 +9.5 37 +26 +38 жарко 1016.3 1012.3
09 15.07 ЮВ 1 50 км ясно +28.1 +10.0 32 +28 +39 жарко 1015.3 1011.4
12 15.07 ЮВ 1 50 км ясно +28.7 +9.5 30 +29 +32 жарко 1015.1 1011.2
15 15.07 штиль 0 50 км ясно +23.9 +16.0 61 +27 +27 жарко 1015.3 1011.3 +28.8
18 15.07 штиль 0 20 км ясно +15.8 +13.8 88 +16 +16 1015.3 1011.2
21 15.07 ЮВ 1 50 км местами туман поземный ясно +13.8 +13.2 96 +14 +14 1015.6 1011.4
00 16.07 В 1 50 км ясно +19.9 +15.5 76 +23 +25 комфорт 1015.9 1011.8
03 16.07 В 1 50 км ясно +25.4 +15.9 56 +29 +37 душно 1015.6 1011.6 +13.8
06 16.07 СВ 2 50 км ясно +28.4 +13.3 39 +30 +42 жарко 1014.2 1010.2
09 16.07 СВ 2 50 км 3/0
[Ci fib]
+30.6 +12.0 32 +31 +40 жарко 1012.9 1009.0
12 16.07 В 2 50 км 3/0
[Ci fib]
+30.6 +13.2 35 +32 +35 жарко 1012.2 1008.3
15 16.07 В 1 50 км 6/0
[Ci fib]
+26.6 +15.5 51 +30 +30 душно 1012.0 1008.0 +31.4
18 16.07 СВ 1 20 км 8/0
[Ci fib]
+20.0 +16.1 78 +24 +24 комфорт 1011.8 1007.8
21 16.07 СВ 1 50 км 8/0
[Ci fib]
+20.4 +15.5 73 +24 +24 комфорт 1011.2 1007.2
00 17.07 СВ 2 50 км 8/0
[Ci sp]
+21.6 +16.2 71 +25 +27 комфорт 1011.0 1006.9
03 17.07 СВ 2 50 км 4/0
[Ci fib]
+27.3 +17.8 56 +32 +38 очень
душно
1010.4 1006.5 +19.8
06 17.07 В 2 50 км 6/0
[Ci fib]
+30.7 +12.8 33 +32 +42 жарко 1009.6 1005.7
09 17.07 В 3 50 км 3/0
[Ci fib]
+32.0 +11.8 29 +32 +40 жарко 1008.7 1004.8
12 17.07 В 2 50 км 3/1 600 м
[Cu hum Ci fib]
+31.4 +12.8 32 +32 +35 жарко 1008.9 1005.0
15 17.07 В 1 50 км 4/0
[Ci fib]
+23.6 +17.7 70 +28 +28 душно 1008.9 1004.9 +32.3
18 17.07 штиль 0 20 км 3/0
[Ci fib]
+18.9 +17.5 92 +20 +20 1008.9 1004.9
21 17.07 штиль 0 50 км местами туман поземный ясно +16.8 +16.2 96 +17 +17 1008.7 1004.7
00 18.07 СВ 1 50 км 3/0
[Ci fib]
+22.4 +18.1 77 +28 +29 душно 1008.5 1004.5
03 18.07 СВ 1 50 км ясно +27.9 +18.9 58 +33 +41 очень
душно
1008.4 1004.5 +16.7
06 18.07 В 2 50 км ясно +32.9 +13.2 30 +34 +45 очень
жарко
1007.7 1003.9
09 18.07 ЮВ 3 50 км 3/3 600 м
[Cu hum]
+33.0 +13.0 30 +34 +39 очень
жарко
1007.5 1003.7
12 18.07 В 2 50 км 3/3 1000 м
[Cu hum]
+32.3 +14.3 34 +34 +36 душно 1007.8 1003.9
15 18.07 СВ 1 50 км 3/0
[Ci fib]
+25.6 +18.9 66 +31 +31 очень
душно
1008.6 1004.7 +33.4
18 18.07 В 2 20 км 3/0
[Ci fib]
+23.6 +16.6 65 +27 +27 жарко 1009.3 1005.3
21 18.07 В 2 50 км ясно +21.3 +17.3 78 +25 +25 комфорт 1010.0 1006.0
00 19.07 В 2 50 км ясно +22.5 +17.5 73 +27 +29 душно 1010.8 1006.8
03 19.07 В 2 50 км ясно +25.8 +17.7 61 +30 +37 душно 1011.6 1007.6 +20.9
06 19.07 В 2 50 км ясно +29.4 +17.1 48 +33 +45 душно 1011.4 1007.5
09 19.07 В 2 50 км ясно +30.4 +13.1 35 +32 +41 жарко 1011.9 1008.0
12 19.07 В 2 50 км ясно +29.6 +12.2 34 +30 +34 жарко 1012.1 1008.2
15 19.07 В 2 50 км ясно +24.8 +13.6 50 +27 +27 жарко 1013.2 1009.2 +30.5
18 19.07 В 2 20 км ясно +20.0 +13.2 65 +23 +23 комфорт 1014.5 1010.4
21 19.07 В 2 50 км ясно +17.2 +11.6 70 +18 +18 1014.9 1010.8
00 20.07 В 2 50 км ясно +17.1 +10.7 66 +17 +19 1016.0 1011.9
03 20.07 ЮВ 2 50 км ясно +22.5 +11.0 48 +25 +32 комфорт 1016.4 1012.3 +16.5
06 20.07 В 3 50 км ясно +26.9 +7.5 29 +27 +36 жарко 1016.1 1012.1
09 20.07 ЮВ 3 50 км ясно +27.2 +7.3 28 +27 +34 жарко 1015.7 1011.7
12 20.07 В 3 50 км 4/0
[Ci fib]
+26.7 +5.2 25 +26 +28 жарко 1015.7 1011.7
15 20.07 ЮВ 1 50 км 3/0
[Ci fib]
+20.9 +8.5 45 +23 +24 комфорт 1016.1 1012.1 +27.7
18 20.07 ЮВ 1 20 км ясно +13.1 +8.5 74 +13 +13 1016.7 1012.5
21 20.07 В 1 20 км местами туман поземный ясно +9.0 +8.1 94 +8 +8 1017.0 1012.7
00 21.07 В 1 50 км ясно +14.8 +9.3 70 +15 +17 1017.0 1012.9
03 21.07 ЮВ 1 50 км ясно +21.2 +9.1 46 +22 +31 комфорт 1016.3 1012.2 +8.5

 

Местоположение метеостанции Толька (Ямало-Ненецкий АО, Россия): широта 63.98 долгота 82.08 высота над уровнем моря 35 м.

В архиве по умолчанию представлена погода в Тольке за последнюю неделю. Архивные данные за месяц целиком и за предыдущие месяцы, начиная с января 2011 года, Вы можете получить, выбрав интересующий диапазон дат из раскрывающегося списка и нажав кнопку "Ввод!".


*Определитесь, кто Вы:
робот инопланетянин человек

Внимание! Время в таблицах - всемирное. Для получения местного времени необходимо прибавить поправку, которая равна 5 ч.

Смотрите также архив погоды в соседних городах и на ближайших метеорологических станциях:

Погода в Красноселькупске (Ямало-Ненецкий АО, Россия) (192 км)
Погода в Халясавэе (Ямало-Ненецкий АО, Россия) (197 км)
Погода в Тарко-Сале (Ямало-Ненецкий АО, Россия) (229 км)
Погода в Верещагино (Красноярский край, Россия) (263 км)
Погода в Келлоге (Красноярский край, Россия) (268 км)
Погода в Корликах (Ханты-Мансийский АО, Россия) (273 км)
Погода в Уренгое (Ямало-Ненецкий АО, Россия) (279 км)
Погода в Верхнеимбатске (Красноярский край, Россия) (305 км)
Погода в Радужном (Ханты-Мансийский АО, Россия) (314 км)
Погода в Советской Речке (Красноярский край, Россия) (326 км)

Пояснения к столбцам:

Ветер - указаны скорость ветра в м/с - средняя за 10 мин, порывы в срок и между сроками (в фигурных скобках) и направление, откуда дует ветер: С - северный, СВ - северо-восточный, В - восточный, ЮВ - юго-восточный, Ю - южный, ЮЗ - юго-западный, З - западный, СЗ - северо-западный.
Видимость - горизонтальная дальность видимости в метрах или километрах. При видимости от 1 до 10 км при отсутствии осадков обычно наблюдается дымка, при ухудшении видимости до 1 км и менее - туман. В сухую погоду видимость может ухудшаться дымом, пылью или мглою.
Явления - указаны атмосферные явления, наблюдавшиеся в срок или в последний час перед сроком; фигурными скобками обозначены явления, наблюдавшиеся между сроками (за 1-3 часа до срока); квадратными скобками обозначены град или гололедные отложения с указанием их диаметра в мм.
Облачность - указаны через наклонную черту общая и нижняя облачность в баллах и высота нижней границы облаков в метрах; квадратными скобками обозначены формы облаков: Ci - перистые, Cs - перисто-слоистые, Cc - перисто-кучевые, Ac - высококучевые, As - высокослоистые, Sc - слоисто-кучевые, Ns - слоисто-дождевые, Cu - кучевые, Cb - кучево-дождевые. Подробнее классификацию облаков см. в Атласе облаков (PDF).
T - Температура воздуха - температура, измеренная на высоте 2 м над землей.
Td - Температура точки росы - температура, при понижении до которой содержащийся в воздухе водяной пар достигнет насыщения.
f - Относительная влажность воздуха - влажноcть воздуха, измеренная на высоте 2 м над землей.
Te - Эффективная температура - температура, которую ощущает одетый по сезону человек в тени. Характеристика душности погоды. При расчете учитывается влияние влажности воздуха и скорости ветра на теплоощущения человека.
Tes - Эффективная температура на солнце - температура, которую ощущает человек, с поправкой на солнечный нагрев. Характеристика знойности погоды. Зависит от высоты солнца над горизонтом, облачности и скорости ветра. Ночью, в пасмурную погоду, а также при ветре 12 м/с и более поправка равна нулю.
P - Атмосферное давление - приведенное к уровню моря атмосферное давление.
Po - Атмосферное давление - измеренное на уровне метеостанции атмосферное давление.
Tmin - Минимальная температура - минимум температуры воздуха на высоте 2 м над землей.
Tmax - Максимальная температура - максимум температуры воздуха на высоте 2 м над землей.
R - Количество осадков - Количество выпавших осадков за период времени, мм. При наведении курсора мыши на число - период времени, за который выпало указанное количество осадков.
R24 - Количество осадков - Количество выпавших осадков за 24 часа, мм.
S - Снежный покров - Высота снежного покрова, см. При наведении курсора мыши на число - состояние снежного покрова и степень покрытия местности в баллах.